[Date Prev][Date Next][Thread Prev][Thread Next] - [Date Index][Thread Index][Author Index]
2 Line ISS Keps 11-26
- Subject: [sarex] 2 Line ISS Keps 11-26
- From: "Scott Avery WA6LIE" <wa6lie@xxxxxxx>
- Date: Fri, 25 Nov 2005 17:17:51 -0800
- Seal-Send-Time: Fri, 25 Nov 2005 17:17:51 -0800
ISS
1 25544U 98067A 05330.02444756 .00012159 00000-0 93447-4 0 8249
2 25544 051.6437 151.4577 0008510 330.0660 171.2118 15.72483605401153
----
Via the sarex mailing list at AMSAT.ORG courtesy of AMSAT-NA.
To unsubscribe, send "unsubscribe sarex" to Majordomo@amsat.org
AMSAT Home